Seitenverwaltung

Live am Platz

Die Bilder unserer Webcams werden alle 5 Minuten aktualisiert.

Sonnenaufgang:

03:49 UTC / 05:49 Lokal

Sonnenuntergang:

19:10 UTC / 21:10 Lokal

METAR (24.07.2019 07:50 UTC):

EDNY 240750Z 00000KT CAVOK 25/17 Q1019
VFR

TAF (24.07.2019 05:00 UTC):

TAF EDNY 240500Z 2406/2506 VRB03KT CAVOK BECMG 2409/2411 24005KT BECMG 2417/2419 VRB02KT

Alle Angaben unverbindlich und ohne Gewähr. Zeiten genähert.

Für den Verkehrslandeplatz Konstanz werden keine offiziellen Wetterinformationen ausgegeben. Daher werden zur Orientierung Daten des nahegelegenen Flughafens Friedrichshafen dargestellt.

Flugwetterdaten zur Verfügung gestellt von wippich.aero.